Theta_e
282 282 282 281 282 282 281 281 281 281 281 280 280 281 281 282 282 282 282 282 282 282 282 283 283 283 284 284 284 285 285 284 284 284 285 284 284 284 285 284 283 283
281 282 282 281 282 282 281 281 280 280 280 280 280 280 281 281 282 281 281 281 282 281 281 282 282 282 282 282 282 282 283 283 283 284 284 284 284 284 284 284 283 283
281 281 281 281 281 280 280 280 280 280 280 280 279 280 281 281 281 281 281 281 281 281 281 281 281 281 281 282 283 283 282 282 282 283 283 283 283 283 284 285 285 284
282 282 283 283 282 281 280 280 280 280 280 281 281 281 281 281 280 280 280 280 280 280 280 280 280 280 280 280 280 281 281 281 282 282 282 282 283 283 283 283 284 285
282 282 281 281 280 280 279 279 279 279 279 280 280 281 281 281 280 280 280 280 280 280 280 280 279 280 280 280 280 280 280 280 281 281 281 281 282 282 283 283 283 284
281 280 280 279 279 279 280 279 279 280 280 280 280 281 280 279 279 279 280 279 280 280 280 279 279 279 279 279 279 279 280 279 280 280 280 280 281 281 282 283 282 282
280 280 280 279 279 279 279 279 279 280 280 279 279 280 280 280 279 280 280 280 279 280 280 280 279 280 280 279 278 278 279 279 279 279 279 279 279 280 280 281 281 281
279 278 278 278 278 278 278 278 278 279 279 278 278 279 279 279 279 279 279 279 279 279 279 279 279 279 279 279 279 279 279 280 280 279 279 279 279 279 279 280 280 280
278 278 278 278 278 278 278 278 278 278 278 278 278 278 278 278 278 278 278 278 278 278 278 279 279 279 279 279 279 279 278 279 279 278 278 278 278 279 279 279 279 279
277 277 277 277 277 277 277 277 277 277 277 277 278 277 278 278 278 278 278 277 277 278 278 278 278 278 278 278 278 278 278 278 279 279 278 278 278 278 278 279 279 279
276 276 276 276 276 276 276 277 277 277 277 277 277 277 277 277 277 277 277 277 277 277 277 277 277 277 277 278 278 278 278 278 278 278 278 278 278 278 280 279 278 278
276 275 275 275 275 275 275 276 276 275 275 276 276 275 275 275 275 275 275 275 275 275 276 276 276 276 276 276 277 277 277 278 278 278 278 278 278 278 278 279 278 279
275 275 275 275 275 275 275 274 274 274 274 273 274 273 273 273 273 273 273 274 273 274 274 274 274 274 274 274 275 276 276 276 276 277 277 278 278 279 279 279 279 279
274 274 274 274 274 274 274 274 273 272 272 272 272 271 271 271 271 271 271 271 271 271 272 272 272 272 272 273 273 273 274 275 275 275 276 276 277 277 278 278 278 279
273 273 273 273 272 272 272 272 271 271 271 270 270 270 271 270 270 270 269 269 269 270 269 270 270 270 271 271 272 273 274 274 274 274 274 274 274 275 276 276 277 278
271 271 271 271 271 271 270 270 269 269 269 268 268 268 268 268 268 268 267 267 267 267 267 267 267 268 270 274 275 273 273 273 273 273 273 273 273 273 274 275 275 276
271 270 271 270 270 269 268 268 267 267 266 266 266 266 266 266 266 266 266 266 265 265 265 265 266 267 271 274 274 275 273 272 271 272 272 272 272 272 273 273 274 275
270 269 268 268 267 267 266 265 265 264 264 264 264 264 264 265 264 264 264 264 264 264 264 264 264 268 271 272 273 274 275 272 272 271 271 271 272 272 272 272 273 273
268 267 266 265 265 264 264 264 263 263 263 263 262 263 263 263 263 263 263 263 263 262 262 263 263 267 270 271 272 274 274 273 271 271 270 270 270 270 270 270 271 271
266 264 264 264 264 263 263 263 262 262 262 262 262 262 262 262 261 262 262 262 262 262 262 262 262 265 269 271 272 273 273 273 270 270 270 269 269 269 269 269 269 269
265 264 263 263 263 262 262 261 261 261 261 262 261 261 261 260 260 260 261 261 261 261 261 261 261 267 269 271 271 272 273 273 270 269 268 268 268 269 269 269 269 269
263 262 262 262 262 261 261 261 261 260 260 261 261 261 261 261 260 260 260 260 260 260 260 260 261 267 268 270 271 272 273 269 268 267 267 267 268 268 269 269 270 270
263 262 261 261 261 260 260 259 260 260 260 260 259 260 260 259 259 259 259 259 259 259 259 259 259 264 268 269 270 271 270 267 267 267 267 266 267 268 268 269 270 270
262 260 260 260 259 259 259 260 260 260 259 260 259 259 258 258 259 258 259 259 259 258 259 259 259 263 267 269 270 271 270 267 266 266 266 266 267 268 268 268 269 271
260 260 260 259 259 259 259 258 259 259 259 259 259 258 258 258 258 258 258 258 258 258 261 260 259 261 266 268 269 270 269 267 267 266 265 266 266 266 267 268 268 269
259 259 259 258 258 258 258 258 259 258 258 258 258 258 257 257 257 257 257 257 258 258 258 259 259 259 262 268 269 270 271 268 267 266 265 265 266 266 266 267 268 268
Wind_Speed
5 4 5 5 5 5 5 6 5 5 5 5 6 6 6 5 6 7 7 7 7 7 8 8 7 8 8 8 7 7 6 6 7 5 6 6 6 5 6 6 6 6
4 4 3 3 4 4 4 4 3 3 4 3 4 3 4 4 5 5 6 6 6 7 7 7 7 7 8 7 7 8 8 7 8 5 6 8 7 6 7 6 6 6
4 5 5 6 6 5 5 4 4 4 4 4 3 3 4 3 4 4 5 5 6 6 6 6 6 6 6 7 7 7 7 8 8 7 6 7 7 6 7 7 6 6
4 3 3 4 5 5 4 5 5 5 4 6 7 6 6 6 5 6 5 5 5 6 6 5 6 6 5 5 5 6 6 7 7 6 7 7 6 6 7 6 6 7
3 5 5 5 5 4 4 4 4 4 4 4 5 6 7 8 9 9 8 8 6 6 6 6 5 5 5 6 5 6 6 7 7 7 7 8 8 6 7 6 7 7
5 5 4 4 4 4 5 4 5 5 6 6 7 6 5 5 5 6 6 7 6 6 7 6 6 5 5 5 5 5 6 7 7 7 8 8 9 8 7 8 7 8
5 5 5 4 5 5 5 5 5 5 6 5 5 6 6 6 6 7 7 7 8 8 8 8 8 8 6 5 5 5 5 5 6 6 7 8 7 9 7 7 9 9
3 3 3 4 4 4 4 4 4 4 5 4 5 6 5 6 6 6 6 7 7 8 8 9 9 9 8 7 8 9 8 5 6 7 7 8 7 9 9 6 7 9
3 4 4 5 6 5 6 6 5 5 5 5 6 6 4 4 6 6 7 6 7 7 7 8 8 9 9 8 9 10 11 11 8 7 8 9 9 9 9 8 9 9
5 4 5 6 6 5 5 5 5 4 4 5 5 5 7 7 5 7 7 7 7 8 8 8 9 9 9 8 9 9 11 12 12 10 9 9 9 9 9 8 9 10
5 5 6 6 6 5 6 6 6 6 6 7 8 8 8 9 9 7 8 9 10 10 11 11 10 10 11 10 9 8 10 11 12 11 10 11 11 11 10 10 10 11
5 5 5 4 4 4 4 4 4 4 5 5 6 9 9 7 8 9 8 10 10 10 10 11 11 10 10 11 11 11 10 10 10 11 11 12 12 12 12 10 11 11
7 8 8 8 8 8 8 8 8 8 9 9 8 8 9 10 10 10 9 9 10 11 11 11 12 12 11 12 11 11 11 12 13 14 13 12 12 12 12 12 11 11
6 6 7 7 7 7 8 8 9 9 10 9 9 10 10 10 11 11 11 10 10 10 10 9 10 10 9 10 10 11 12 12 12 13 13 12 12 11 12 10 13 12
4 4 4 5 5 6 6 8 8 8 8 9 9 9 8 9 10 10 12 13 11 10 10 10 9 9 9 11 12 13 11 12 12 13 12 14 14 14 13 14 12 12
3 3 4 5 5 6 7 7 8 8 9 9 9 9 9 9 10 10 9 10 13 13 11 10 9 7 12 21 19 14 14 12 13 13 13 12 14 14 16 13 14 13
3 4 4 5 5 6 7 8 9 8 8 8 8 8 9 9 9 10 10 10 11 12 13 11 9 9 20 21 23 25 17 14 13 12 11 12 12 13 14 13 13 11
4 4 5 5 6 6 7 6 7 7 7 7 7 8 8 8 8 9 9 10 10 11 11 11 11 15 22 24 24 25 22 17 15 15 15 13 12 12 10 12 13 13
5 5 5 5 4 5 5 6 6 7 7 8 9 7 8 8 9 10 9 9 9 11 12 11 11 17 22 25 25 25 25 22 15 15 15 16 16 16 15 13 11 12
4 4 5 5 5 6 6 6 7 7 6 6 7 7 7 7 8 9 9 9 10 11 12 12 12 17 24 25 25 26 25 22 16 17 16 16 16 16 15 15 12 12
5 5 5 5 6 6 7 7 7 8 8 7 7 8 8 9 9 9 9 8 10 10 12 13 12 22 24 25 25 26 26 23 15 15 15 15 15 15 16 16 16 14
4 4 5 5 7 6 7 8 7 7 9 9 8 8 7 7 8 7 9 10 9 10 11 13 12 21 24 24 25 25 27 16 13 14 14 15 14 15 15 15 15 15
4 4 5 6 6 7 8 8 8 9 8 6 9 9 9 9 8 9 8 10 11 10 11 13 11 17 23 24 25 26 21 13 13 13 13 14 14 14 14 14 14 15
5 4 6 7 7 8 9 8 7 7 7 6 8 10 10 9 9 10 8 8 11 12 11 13 13 16 24 24 25 25 21 15 12 12 12 13 14 14 13 13 15 24
4 4 5 6 7 8 7 9 9 8 8 7 7 7 9 9 9 9 10 9 9 12 16 16 13 15 22 24 25 24 20 13 11 11 14 13 13 14 13 14 15 16
3 4 5 6 8 8 7 8 8 8 8 8 8 7 9 8 8 9 11 10 9 11 11 10 12 12 15 26 24 25 25 16 11 10 11 14 13 13 12 13 14 13
Wind_Direction
59 57 61 58 55 57 51 42 30 33 24 17 25 359 2 341 353 2 359 0 1 1 357 355 354 353 350 349 350 346 346 337 330 334 327 323 312 306 298 293 292 277
59 66 67 71 55 43 41 51 28 35 2 2 355 344 338 348 347 359 354 353 353 352 349 349 349 348 345 346 343 345 336 339 331 334 333 323 313 311 297 290 281 280
39 38 38 38 35 27 19 8 12 356 355 326 312 325 328 338 340 343 343 344 343 340 342 340 338 338 339 336 339 338 334 330 327 325 324 311 306 305 295 296 294 285
31 46 36 27 29 18 8 10 358 355 343 349 348 343 347 342 345 339 335 334 331 326 327 329 326 325 326 324 327 326 322 319 312 316 313 306 302 296 296 294 288 294
22 10 14 10 9 3 356 357 338 334 340 322 332 342 347 345 346 342 339 337 335 326 324 319 313 312 314 317 321 320 319 316 315 321 319 315 310 313 302 302 297 293
6 10 8 358 344 357 342 343 339 347 345 352 344 336 337 333 330 324 324 324 323 322 319 318 316 310 307 305 310 309 307 314 310 314 312 308 309 312 313 309 302 296
351 359 350 357 355 3 2 350 346 346 343 332 334 334 334 333 333 329 327 326 325 326 327 325 325 322 322 315 310 303 299 292 296 300 301 303 300 302 303 305 304 299
347 348 8 12 17 11 10 352 344 336 325 333 331 317 330 322 322 319 317 316 320 320 323 323 323 322 323 325 322 319 313 305 305 303 298 296 300 298 299 295 293 297
18 17 12 16 18 10 5 353 347 339 335 340 328 325 328 323 322 322 318 318 317 317 317 318 318 318 320 323 322 321 318 315 311 303 299 297 297 293 293 294 292 290
28 17 19 14 14 360 356 343 340 333 329 336 326 334 338 337 337 328 329 328 324 321 321 318 318 316 317 319 318 316 314 310 310 307 299 292 287 287 288 285 282 284
21 15 15 9 6 358 353 348 347 346 348 349 346 348 348 341 339 343 336 335 333 330 326 326 324 323 322 320 317 312 306 304 303 302 300 296 292 288 283 282 278 274
12 10 7 360 352 348 342 337 335 346 346 351 352 342 339 341 337 338 338 330 329 326 325 323 323 324 323 321 319 316 309 304 300 298 297 295 294 291 289 285 281 280
8 2 358 359 359 354 354 356 359 358 357 353 351 346 342 340 340 337 335 330 326 325 323 323 321 321 322 318 316 317 317 312 307 303 298 297 291 289 288 287 284 284
7 352 358 358 352 352 353 356 354 352 350 346 346 344 342 343 339 335 330 328 321 320 318 321 317 316 316 320 318 316 310 303 301 299 298 295 294 291 290 286 285 283
352 352 354 354 348 354 356 352 349 344 341 342 340 336 337 335 333 333 330 324 323 324 325 323 321 320 324 324 318 313 310 304 303 298 296 295 293 290 286 287 284 283
348 349 354 356 357 356 353 347 343 340 337 336 334 333 333 331 331 332 326 325 326 324 325 324 319 320 321 320 319 316 313 308 301 295 292 291 291 290 289 284 283 284
354 359 3 357 354 346 345 343 337 335 331 328 328 331 327 329 329 326 330 328 324 321 320 320 316 315 319 319 317 313 310 303 298 293 288 286 283 285 289 293 291 288
3 4 357 345 346 341 337 333 328 327 325 323 324 324 325 326 324 325 326 322 318 315 312 311 310 312 315 314 312 310 308 305 300 298 298 296 293 290 289 293 296 297
3 355 341 337 336 333 326 325 325 322 322 324 322 320 318 322 322 322 318 318 314 311 309 307 305 310 310 309 308 307 306 305 298 296 295 295 296 297 296 297 300 300
349 345 334 329 328 328 325 322 322 317 316 311 309 315 315 313 315 312 312 313 312 309 306 305 302 305 306 305 306 305 305 303 297 297 295 294 295 297 297 297 294 294
339 335 327 322 324 321 320 317 316 313 313 314 314 315 317 315 317 316 311 309 307 304 300 299 300 303 305 305 304 305 304 303 300 298 296 295 294 294 295 295 296 293
333 324 320 317 316 315 313 312 312 311 315 316 311 307 302 303 302 301 304 306 301 299 297 295 296 304 304 304 304 304 305 303 302 298 295 294 294 296 295 295 295 294
321 317 314 313 312 311 309 309 312 312 311 312 308 308 308 308 303 303 302 301 301 297 296 295 295 302 304 305 305 305 306 301 297 296 295 295 294 294 294 295 297 301
311 310 307 307 308 305 305 306 305 300 299 308 303 307 305 303 304 302 297 295 296 296 294 295 296 303 306 306 306 306 304 302 300 296 293 293 295 294 296 297 300 302
297 299 298 299 298 298 301 302 303 300 300 299 291 292 293 299 299 296 295 292 288 289 294 295 294 301 304 304 304 305 304 296 292 288 292 293 294 295 293 295 294 288
293 292 288 290 292 294 294 291 294 297 295 296 294 291 293 296 292 290 292 292 291 289 288 288 293 294 297 300 302 303 303 300 291 291 290 291 291 289 289 281 274 273